Theta_e
349 346 342 348 362 367 364 360 357 361 357 350 347 349 351 353 356 357 343 340 337 342 344 346 349 350 350 350 346 345 350 350 347 348 350 344 350 350 348 350 348 348 350 351 351 351 352 351 351
347 344 349 357 367 363 363 358 361 358 354 348 351 355 356 359 349 344 345 342 336 342 343 345 347 350 350 350 348 351 351 350 350 350 348 351 348 350 347 350 350 350 348 350 350 351 350 349 347
345 349 354 362 360 365 366 360 360 358 351 354 357 353 355 355 345 344 346 339 340 342 343 346 346 350 351 350 351 351 351 349 349 350 349 348 351 350 351 350 351 350 350 350 351 350 348 349 346
348 352 350 358 363 360 361 360 359 358 356 354 354 358 351 347 345 348 345 337 340 344 345 349 350 350 350 351 351 349 349 351 350 350 351 351 349 350 351 350 350 350 350 349 350 349 345 345 345
351 355 357 360 360 358 358 358 358 359 358 356 354 357 354 349 349 347 343 338 340 346 348 349 350 352 351 350 351 351 350 350 350 351 351 350 352 351 349 349 349 350 348 349 349 347 344 344 346
355 356 364 366 361 359 359 353 354 359 357 355 355 355 353 349 348 347 344 340 341 346 348 349 350 350 351 351 351 351 351 351 349 350 351 352 350 350 351 351 350 349 348 348 348 343 342 345 346
359 356 365 362 361 363 359 351 360 359 357 357 352 356 352 349 348 348 346 343 346 346 347 349 351 352 352 351 351 352 352 351 351 352 351 350 351 350 351 351 350 351 349 348 347 339 342 345 345
355 358 360 362 365 361 356 359 358 359 360 351 349 356 355 348 348 349 347 347 346 348 349 350 352 351 348 352 352 352 350 351 350 351 350 346 349 351 352 348 350 349 349 349 347 338 342 344 345
352 362 363 361 363 362 359 360 356 353 356 352 352 350 348 348 349 348 348 349 348 349 349 350 351 348 349 351 352 352 351 351 350 348 347 351 350 349 348 349 350 350 349 349 348 344 341 343 344
353 361 361 356 356 356 357 358 355 352 355 356 352 347 347 349 348 347 348 348 350 350 350 349 351 348 349 349 351 350 351 349 345 346 347 349 348 347 345 349 351 350 350 350 344 339 341 342 343
346 356 352 353 355 352 354 357 351 353 358 356 353 349 348 348 347 347 347 346 349 349 349 349 348 345 348 348 352 349 348 342 345 349 349 348 345 345 348 349 348 349 347 342 340 339 338 341 342
339 340 345 345 354 350 354 356 355 353 358 353 350 347 348 348 347 347 346 346 347 348 348 346 343 347 347 347 346 346 343 342 345 347 348 347 343 342 343 341 341 343 343 341 338 336 341 341 343
336 338 338 337 352 349 352 355 355 355 353 353 350 347 347 346 347 346 346 344 347 349 348 346 344 346 346 345 344 345 344 346 347 348 347 346 343 343 343 343 340 342 342 339 339 340 341 339 341
334 335 336 334 337 350 354 352 350 350 354 354 350 349 346 346 346 346 345 345 348 348 346 343 346 346 347 342 342 345 346 347 348 348 348 346 345 345 346 343 344 342 336 339 339 341 342 342 343
333 336 331 343 355 358 351 356 353 354 353 354 351 349 347 344 346 345 345 345 346 346 345 343 345 346 344 343 347 348 348 348 349 350 348 348 347 344 347 346 345 345 339 340 340 342 343 343 342
329 323 325 337 358 359 352 362 354 355 355 355 352 349 349 345 346 345 345 345 347 345 345 345 346 348 347 346 348 349 350 349 350 350 347 349 348 348 345 345 345 342 343 343 341 341 342 342 343
324 331 330 327 355 361 354 360 358 355 355 356 352 350 350 345 345 344 343 345 347 345 345 345 346 348 348 348 349 350 349 350 351 349 346 348 349 347 345 346 344 343 341 341 343 343 342 343 344
331 331 327 325 333 340 361 359 358 355 357 356 352 350 350 345 344 343 342 344 345 345 345 345 346 347 349 349 349 349 348 350 349 350 348 347 349 349 348 346 344 345 344 343 343 343 343 342 343
327 326 326 325 325 325 346 360 356 355 357 356 353 351 350 347 341 343 342 346 346 346 346 346 347 348 351 349 348 349 348 348 350 350 350 351 350 347 349 346 344 347 346 345 346 343 345 346 343
327 327 326 324 323 321 352 360 356 352 356 355 353 352 350 347 343 342 341 346 345 347 347 347 348 348 350 349 349 349 349 348 349 350 351 350 350 349 349 346 348 348 347 345 346 342 346 344 342
326 325 326 326 324 344 356 361 358 354 350 345 348 347 349 348 346 341 341 347 346 346 346 347 347 346 347 349 347 348 350 348 349 350 350 350 350 349 350 346 349 348 346 346 348 344 345 342 341
328 324 326 325 321 322 327 323 357 356 355 352 347 349 347 349 347 341 340 346 346 346 346 347 348 347 346 346 345 346 350 349 349 350 350 352 351 351 350 347 347 349 349 349 347 343 344 343 340
326 325 324 323 320 319 320 322 328 357 359 354 350 350 347 347 347 344 340 344 345 345 345 346 347 347 344 343 343 344 348 349 348 350 351 350 351 351 351 350 350 348 351 348 346 345 347 347 343
324 323 317 314 316 320 319 319 320 355 358 353 349 348 348 348 347 346 343 340 345 345 345 345 345 345 344 344 342 343 346 348 348 347 350 349 351 352 352 352 348 350 351 349 347 348 347 349 348
315 316 318 321 320 321 316 319 320 335 347 351 349 348 346 349 347 348 343 341 342 345 344 345 345 346 345 345 343 343 342 346 348 347 348 350 351 351 352 351 351 350 350 350 348 349 350 350 349
314 315 318 323 321 320 316 321 321 320 331 343 345 345 345 349 347 347 344 342 340 344 344 346 345 346 347 346 344 343 342 344 346 348 348 350 351 351 351 352 352 349 347 350 350 350 347 350 348
314 313 316 316 316 319 319 320 322 328 331 339 342 343 345 348 348 347 345 343 341 342 344 345 346 345 347 347 345 344 343 341 344 346 348 349 350 350 349 351 352 352 350 348 351 350 350 350 350
312 312 315 313 322 324 320 322 321 329 330 329 330 341 343 340 341 342 345 345 342 342 343 345 346 345 345 346 347 345 344 343 341 345 346 350 351 351 349 350 351 353 352 349 350 351 349 350 348
311 312 310 309 314 319 321 321 323 328 328 328 328 332 334 331 339 339 342 345 344 342 342 343 346 346 345 345 346 346 345 344 341 342 345 345 352 352 351 350 350 351 353 351 348 349 351 351 349
311 312 309 313 315 313 316 320 322 322 324 328 332 340 344 340 334 338 341 344 346 343 343 342 343 346 345 345 345 345 345 345 342 339 341 344 344 349 353 350 350 349 350 352 350 350 350 351 351
Wind_Speed
7 8 7 2 3 3 2 1 3 3 4 7 16 6 6 4 3 3 13 23 33 30 24 20 17 14 15 14 15 15 15 13 13 13 12 12 12 11 11 11 12 12 12 11 11 11 11 12 14
11 10 2 2 2 2 2 2 4 6 1 16 7 9 5 3 4 10 16 26 33 29 25 21 17 15 15 15 14 14 14 12 13 13 11 13 12 11 11 11 12 12 12 11 11 10 11 12 14
14 5 1 3 2 1 4 3 8 1 13 11 5 7 4 3 9 21 17 36 32 27 23 20 18 16 16 15 14 14 13 12 12 13 13 12 12 10 11 11 12 13 13 13 12 11 12 13 14
10 3 2 2 4 2 6 9 11 4 8 8 6 8 4 6 17 13 33 37 31 26 22 19 17 16 15 15 14 14 13 12 12 12 13 12 11 12 11 11 12 12 12 12 13 12 14 13 12
3 2 2 2 1 2 5 10 10 9 8 6 3 5 10 3 16 31 32 35 31 25 22 18 18 17 15 14 14 13 13 13 13 12 12 13 12 12 12 12 12 12 12 12 12 14 15 11 9
1 1 1 2 1 2 3 8 8 7 4 8 8 8 4 24 28 28 29 32 27 26 21 19 16 15 14 14 13 13 13 13 14 12 11 11 11 13 12 13 12 12 12 12 10 14 14 12 12
2 1 3 2 3 3 3 3 5 6 6 4 9 4 8 17 25 28 30 29 27 24 21 19 17 15 14 13 14 14 13 13 12 11 10 10 11 10 12 13 12 12 13 13 12 13 14 13 12
2 2 3 3 4 2 4 5 6 9 5 12 9 5 10 20 27 29 29 28 27 24 21 20 18 16 15 13 13 13 14 13 11 11 10 10 11 10 10 12 11 11 11 11 11 14 14 13 12
4 2 2 3 3 2 4 2 4 7 7 1 3 7 21 28 28 28 24 24 25 22 21 20 19 17 15 14 13 13 14 13 13 11 10 10 10 9 10 12 11 10 10 11 12 15 14 13 11
3 2 6 5 3 4 9 5 7 4 5 2 13 22 28 29 26 24 21 21 21 23 23 21 20 19 17 16 15 16 15 14 13 12 10 10 11 10 10 9 9 10 11 13 13 14 12 12 12
5 5 4 4 8 14 6 9 12 10 6 3 17 23 23 28 24 23 23 29 29 28 24 23 21 20 19 19 17 17 17 16 14 12 10 8 10 12 11 11 10 11 12 12 12 12 10 10 9
3 11 11 4 11 11 14 15 7 10 2 6 17 19 22 21 20 22 20 21 26 29 27 24 22 21 19 18 19 19 18 17 15 13 10 11 11 13 12 11 9 9 10 10 9 10 10 8 11
5 9 6 7 12 14 14 9 6 13 6 6 14 20 18 16 22 23 25 24 27 28 27 26 24 22 20 19 20 19 18 16 15 14 11 12 13 12 12 11 9 8 7 7 9 10 11 11 10
4 5 10 10 9 10 10 7 2 4 7 12 17 22 19 17 24 20 21 22 27 28 29 28 25 22 20 21 21 19 17 14 13 12 14 12 11 11 11 10 9 7 6 8 9 8 8 10 6
8 10 8 2 10 7 12 5 1 6 6 13 14 20 18 19 26 23 25 27 33 32 29 29 27 23 21 22 19 17 16 15 14 12 14 13 10 11 9 8 10 7 8 8 8 7 6 6 5
3 4 3 3 9 7 4 4 4 7 7 11 16 19 20 19 29 28 29 29 32 32 32 29 28 25 21 20 19 18 18 17 15 13 14 10 12 9 8 7 9 10 9 8 9 8 9 5 5
6 1 1 3 11 7 5 4 15 12 15 13 16 18 18 17 24 30 31 32 37 37 36 33 29 27 22 21 21 21 19 20 17 16 14 11 10 9 8 8 10 10 8 9 7 6 7 8 6
2 1 2 2 4 5 8 9 10 14 18 20 18 17 17 18 21 30 31 34 34 38 39 37 34 28 24 19 17 17 18 17 19 16 14 13 10 10 8 11 9 7 9 10 8 5 5 5 4
3 3 3 4 6 2 9 8 17 10 13 17 21 18 19 19 21 33 32 35 33 33 36 39 35 33 27 23 23 20 21 18 20 15 13 11 11 11 12 9 10 8 8 8 11 8 5 5 7
3 3 4 6 6 3 3 7 7 4 5 17 24 18 16 17 16 27 32 33 34 37 40 40 38 37 32 28 27 19 19 23 18 16 13 11 11 11 14 13 9 9 11 11 10 11 9 6 9
2 5 3 6 6 5 6 4 5 2 2 2 4 5 10 15 15 18 27 33 34 35 39 43 42 41 35 31 26 18 16 19 18 18 17 14 13 10 14 15 11 12 12 11 10 10 8 9 10
4 8 6 4 3 1 2 3 6 12 6 9 10 7 7 14 13 15 23 31 35 37 40 45 44 40 36 34 29 25 19 18 18 20 21 16 14 12 11 15 12 13 12 12 10 8 6 7 9
9 6 6 5 4 4 3 3 4 9 11 18 19 14 11 12 15 17 23 33 36 39 39 41 43 41 39 35 34 29 24 21 18 19 20 19 16 16 14 14 12 12 11 12 10 11 8 7 7
6 2 6 5 4 2 6 5 5 5 15 15 17 17 13 12 14 17 26 31 34 34 37 38 42 43 41 36 33 33 29 23 21 19 23 22 20 18 18 15 15 13 12 13 14 11 11 7 5
6 6 2 3 1 5 4 4 8 8 11 18 23 23 17 17 15 16 17 26 31 35 35 36 38 39 44 39 35 33 34 29 23 22 23 25 23 22 22 18 16 15 14 14 15 13 13 10 8
2 6 5 5 3 3 4 5 2 7 12 8 17 17 13 18 17 19 15 29 32 35 38 38 37 38 42 43 39 35 32 33 29 22 22 27 28 26 25 22 20 15 16 16 16 15 13 12 12
3 4 2 7 3 3 2 5 3 8 14 11 4 5 9 17 16 19 21 30 34 36 37 40 39 37 42 46 43 40 35 34 33 28 23 25 29 29 27 24 23 21 17 18 17 17 16 15 14
6 2 2 4 4 4 4 3 2 7 8 8 9 7 5 7 9 11 16 27 33 38 39 38 41 43 46 46 44 43 40 36 34 32 28 22 25 31 31 26 24 24 21 19 18 17 16 15 17
6 5 5 4 4 4 3 3 2 3 5 7 9 8 11 12 17 16 18 29 32 34 37 38 37 39 37 40 39 40 42 40 36 36 33 30 21 26 33 31 27 26 25 22 20 19 17 16 15
15 4 4 4 4 1 1 2 6 9 7 6 9 11 14 12 17 22 16 25 28 31 35 38 38 40 41 44 40 41 42 42 40 38 38 34 32 25 26 30 29 29 28 27 24 22 20 20 17
Wind_Direction
166 161 139 7 238 257 287 270 314 340 93 144 148 149 171 93 178 190 150 151 154 158 159 157 154 152 149 141 141 143 140 135 133 133 127 124 118 111 116 124 124 129 130 122 114 110 112 108 107
167 155 157 224 269 349 288 294 255 266 353 129 130 117 74 100 90 118 135 156 155 157 158 157 157 154 151 150 145 139 139 140 137 135 131 122 119 122 115 116 122 122 125 119 117 110 106 108 110
165 161 259 354 69 36 310 343 289 67 127 133 113 36 61 79 109 141 154 154 155 157 158 157 159 154 153 157 145 143 146 147 143 132 131 127 120 116 124 120 117 124 121 118 114 113 112 112 114
168 203 79 50 40 43 338 340 348 109 71 64 107 75 83 141 140 153 147 153 155 157 159 158 156 154 155 154 152 156 149 147 136 136 130 122 121 117 110 110 114 112 114 120 120 115 116 112 118
259 17 71 95 267 64 359 341 327 285 328 110 146 87 114 90 128 139 146 155 156 158 159 158 153 156 161 155 154 153 145 143 144 142 130 129 130 123 122 119 119 117 114 115 117 119 119 116 115
313 153 231 116 307 97 122 243 283 269 165 112 102 103 78 134 130 140 147 156 158 157 159 154 155 155 161 160 154 153 149 145 145 147 139 136 131 129 127 125 126 124 125 120 116 121 120 113 112
277 18 295 149 163 152 225 292 331 83 154 109 140 89 124 136 139 145 155 155 157 158 155 155 155 158 159 159 157 155 151 148 152 146 147 137 137 136 130 129 122 120 123 122 123 128 121 113 117
220 203 288 29 326 174 169 152 323 48 9 112 156 158 158 149 144 146 153 155 156 157 158 159 157 161 163 161 155 155 154 153 148 148 146 145 142 142 141 130 126 124 120 117 119 129 124 114 111
205 289 258 170 172 123 105 70 10 350 277 221 298 128 144 140 136 132 135 146 155 161 162 161 162 166 161 160 158 154 156 157 156 151 141 138 141 150 148 134 132 124 118 109 115 130 134 128 117
185 203 220 219 98 147 140 120 110 12 308 107 86 118 139 137 140 138 145 150 155 166 168 169 169 168 166 163 164 160 160 166 158 148 147 137 137 139 145 138 142 132 120 117 122 133 139 140 135
199 231 192 133 110 137 111 144 152 179 257 228 146 146 144 147 152 151 162 167 168 171 171 178 177 175 173 172 174 167 165 162 158 159 152 152 140 145 150 154 160 148 139 132 129 134 142 154 162
260 233 249 111 137 140 158 160 177 194 294 236 158 158 147 156 161 162 162 164 170 173 177 180 179 177 178 176 175 169 167 170 164 162 165 161 153 151 152 161 163 159 149 137 139 141 131 147 150
249 274 262 247 169 161 143 183 169 199 196 243 170 161 156 162 168 170 171 170 171 176 182 183 182 181 182 181 176 173 172 177 175 170 162 160 159 159 160 161 166 170 161 149 133 136 136 124 131
234 276 267 263 227 141 157 137 236 198 180 186 167 166 165 170 174 167 168 169 176 181 184 184 186 183 183 183 181 179 182 186 187 183 187 187 203 196 189 184 194 202 187 172 155 138 138 136 147
245 272 287 150 135 145 129 121 240 122 129 171 186 172 165 176 175 173 179 178 178 185 182 185 184 181 186 189 186 189 192 199 208 201 190 184 192 181 186 188 189 195 197 169 160 155 133 136 170
291 62 48 133 149 155 151 124 181 145 151 186 189 179 179 173 178 180 184 181 181 181 183 185 187 186 190 197 199 203 208 211 208 213 193 197 188 180 174 179 180 178 176 171 169 165 148 139 169
-0 190 135 45 202 147 192 156 225 162 166 197 194 189 184 178 183 183 183 181 184 186 182 185 191 192 192 207 218 221 217 211 223 206 194 179 188 184 192 172 169 174 163 166 173 176 181 163 174
169 44 331 120 158 135 200 249 206 204 179 185 189 193 189 179 191 183 179 182 187 189 187 188 190 192 191 194 197 210 204 213 208 206 204 199 191 193 187 176 171 176 190 187 179 169 164 176 203
159 156 273 282 235 247 205 199 202 192 179 188 191 198 201 185 182 181 176 180 183 186 186 191 190 187 184 177 175 191 211 201 193 205 196 197 201 203 192 191 184 190 189 185 187 191 193 200 174
194 240 278 294 280 152 137 233 187 99 198 192 194 195 204 192 172 177 178 174 176 181 187 187 190 184 188 184 186 193 201 197 203 203 198 201 197 197 190 191 199 194 186 181 173 182 191 195 199
231 227 188 214 341 44 113 12 177 161 237 287 215 215 220 203 179 181 175 173 178 183 183 189 191 190 194 193 190 194 200 203 210 207 208 207 203 193 197 194 188 183 183 184 186 184 182 179 193
256 214 223 240 99 251 153 267 247 213 218 245 230 231 237 210 199 182 176 178 180 185 187 190 192 194 197 197 196 197 194 194 203 214 211 217 210 209 201 199 200 198 194 196 201 188 177 188 215
229 189 208 196 155 104 316 78 260 161 212 234 224 225 225 214 213 192 186 182 187 184 188 191 196 197 196 198 201 199 202 207 209 210 213 220 219 217 215 206 213 206 207 205 199 191 200 225 219
235 140 53 57 120 83 232 135 286 187 221 234 238 233 219 212 221 209 199 184 187 190 186 192 194 199 199 197 199 203 203 206 213 219 215 220 221 223 219 216 218 213 205 202 193 200 205 217 230
70 75 353 13 35 196 235 82 240 247 232 213 216 228 206 215 209 210 194 191 188 187 189 189 194 197 201 200 200 205 210 211 213 220 217 215 219 223 222 219 217 217 213 199 199 196 198 215 227
306 146 153 185 179 220 202 170 299 289 275 228 232 231 201 201 206 201 196 194 191 192 189 187 193 196 201 203 202 205 212 216 218 222 226 222 221 224 227 223 220 218 218 216 212 214 220 223 230
314 43 289 101 26 71 267 288 273 347 18 15 312 198 220 217 211 201 193 195 193 192 194 190 190 198 200 205 206 206 208 216 222 223 227 233 231 230 229 228 226 223 222 219 220 225 230 231 229
85 311 58 7 123 153 312 305 245 358 350 2 15 340 272 236 218 205 214 199 195 194 194 195 193 195 202 204 206 208 210 213 221 226 227 233 241 235 234 232 231 228 227 225 226 228 226 235 237
11 8 16 110 93 145 135 288 300 302 342 342 326 315 289 242 230 210 207 208 201 196 193 195 195 195 198 201 204 207 212 215 217 225 229 231 242 237 236 237 234 233 232 231 229 231 233 235 237
82 79 92 97 326 33 225 100 356 315 331 353 357 357 346 284 237 216 199 200 200 195 192 195 198 196 198 200 202 206 212 217 217 221 228 231 235 244 240 233 237 239 240 237 235 235 237 238 242